Location: *
(43.6428°N, 11.5461°E)
Time: 02:14:47
(UTC+00:00)

STARLINK-52 - Pass Details

Date: 21 October 2019
Orbit: 443 x 445 km, 53.0° (Epoch: 18 November)

Event Time Altitude Azimuth Distance (km) Brightness Sun altitude
Rises 17:01:09 0° 307° (NW) 2,441 7.7 -7.9°
Reaches altitude 10° 17:03:28 10° 319° (NW) 1,568 6.4 -8.3°
Maximum altitude 17:06:36 29° 21° (NNE) 842 4.3 -8.9°
Enters shadow 17:09:12 13° 79° (E) 1,382 5.0 -9.3°
